SCP
0 0 0 0 0 0 0 0 0 0 0 0 0 0 0 0 0 0 0 0 0 0 0 0 0 0 0 0 0 0 0 0
0 0 0 0 0 0 0 0 0 0 0 0 0 0 0 0 0 0 0 0 0 0 0 0 0 0 0 0 0 0 0 0
0 0 0 0 0 0 0 0 0 0 0 0 0 0 0 0 0 0 0 0 0 0 0 0 0 0 0 0 0 0 0 0
0 0 0 0 0 0 0 0 0 0 0 0 0 0 0 0 0 0 0 0 0 0 0 0 0 0 0 0 0 0 0 0
0 0 0 0 0 0 0 0 0 0 0 0 0 0 0 0 0 0 0 0 0 0 0 0 0 0 0 0 0 0 0 0
-0 0 0 0 0 0 0 0 0 0 0 0 0 0 0 0 0 0 0 0 0 0 0 0 0 0 0 0 0 0 0 0
0 0 0 0 0 0 0 0 0 0 0 0 0 0 0 0 0 0 0 0 0 0 0 0 0 0 0 0 0 0 0 0
0 0 0 0 0 0 0 0 0 0 0 0 0 0 0 0 0 0 0 0 0 0 0 0 0 0 0 0 0 0 0 0
0 0 0 0 0 0 0 0 0 0 0 0 0 0 0 0 0 0 0 0 0 0 0 0 0 0 0 0 0 0 0 0
0 0 0 0 0 0 0 0 0 0 0 0 0 0 0 0 0 0 0 0 0 0 0 0 0 0 0 0 0 0 0 0
0 0 0 0 0 0 0 0 0 0 0 0 0 0 0 0 0 0 0 0 0 0 0 0 0 0 0 0 0 0 0 0
0 0 0 0 0 0 0 0 0 0 0 0 0 0 0 0 0 0 0 0 0 0 0 0 0 0 0 0 0 0 0 0
0 0 0 0 0 0 0 0 0 0 0 0 0 0 0 0 0 0 0 0 0 0 0 0 0 0 0 0 0 0 0 0
0 0 0 0 0 0 0 0 0 0 0 0 0 0 0 0 0 0 0 0 0 0 0 0 0 0 0 0 0 0 0 0
0 0 0 0 0 0 0 0 0 0 0 0 0 0 0 0 0 0 0 0 0 0 0 0 0 0 0 0 0 0 0 0
0 0 0 0 0 0 0 0 0 0 0 0 0 0 0 0 0 0 0 0 0 0 0 0 0 0 0 0 0 0 0 0
0 0 0 0 0 0 0 0 0 0 0 0 0 0 0 0 0 0 0 0 0 0 0 0 0 0 0 0 0 0 0 0
0 0 0 0 0 0 0 0 0 0 0 0 0 0 0 0 0 0 0 0 0 0 0 0 0 0 0 0 0 0 0 0
0 0 0 0 0 0 0 0 0 0 0 0 0 0 0 0 0 0 0 0 0 0 0 0 0 0 0 0 0 0 0 0
0 0 0 0 0 0 0 0 0 0 0 0 0 0 0 0 0 0 0 0 0 0 0 0 0 0 0 0 0 0 0 0
Wind_Speed_500mb
13 17 30 34 39 42 37 37 36 30 31 33 38 32 28 26 29 28 30 34 34 35 37 39 39 41 43 44 50 55 57 60
22 28 22 17 26 28 34 36 31 28 30 36 33 31 30 27 29 30 33 35 38 39 40 43 44 45 46 50 55 64 67 66
24 27 23 14 22 19 27 29 25 26 28 24 26 26 28 30 30 34 36 39 42 44 48 49 49 49 49 49 54 57 61 59
29 28 13 17 22 24 17 20 23 24 21 20 24 26 25 28 31 32 38 42 45 50 54 58 58 60 64 62 60 48 50 49
15 17 15 3 6 7 9 16 15 14 12 18 23 25 27 30 36 41 44 44 45 49 53 53 49 45 39 40 38 45 45 44
5 10 9 11 9 2 7 5 3 6 14 21 26 30 31 35 39 40 42 44 42 35 29 29 32 31 32 33 39 37 37 41
1 10 15 16 10 8 8 3 5 12 17 17 19 22 29 38 41 38 34 33 29 32 35 30 29 19 25 33 34 35 44 52
4 12 15 15 13 11 8 4 4 9 16 20 23 28 33 32 32 29 25 25 23 21 27 23 19 23 30 35 42 51 56 55
12 15 17 13 11 7 8 5 8 11 14 20 26 27 25 25 22 17 14 20 26 26 24 21 23 28 36 45 51 51 53 57
14 18 17 16 11 9 2 8 12 15 17 22 24 25 24 15 12 13 22 29 26 19 18 22 31 39 45 49 52 54 55 57
18 20 17 14 12 13 16 19 18 19 20 19 19 12 14 15 16 23 25 20 21 21 29 35 40 46 48 52 56 57 57 56
29 28 22 16 12 10 15 16 15 16 16 14 16 15 15 13 15 20 21 21 23 30 32 34 40 47 52 56 60 58 57 56
34 28 20 13 9 11 13 16 13 13 11 13 15 19 16 10 15 19 20 23 28 31 30 33 40 48 52 53 58 61 62 55
34 24 16 12 7 11 12 11 5 5 9 11 17 20 11 12 16 14 15 22 29 32 33 35 37 42 45 49 51 54 48 57
25 18 14 6 4 10 8 2 5 5 8 10 16 17 14 14 15 7 13 20 27 34 39 41 43 46 45 50 47 50 45 55
19 11 4 2 8 10 4 2 2 6 6 6 15 21 21 17 18 10 17 24 30 39 47 51 47 44 44 44 43 46 50 49
10 2 3 6 6 7 3 4 2 4 3 3 10 19 13 20 22 15 17 23 32 41 50 52 50 47 43 39 38 42 44 46
3 3 5 5 6 7 6 6 5 6 8 5 3 15 11 14 11 17 22 25 33 46 50 50 49 50 44 45 48 46 46 46
5 2 4 5 6 10 9 7 9 10 11 9 6 8 11 13 15 22 25 27 37 45 46 42 43 47 49 45 48 50 50 48
5 2 4 5 7 12 15 11 11 12 14 12 12 11 14 18 22 25 25 28 40 47 41 38 35 38 43 49 51 51 51 48
Wind_Direction_500mb
282 247 291 280 261 257 260 263 274 265 276 290 277 280 296 310 324 326 326 325 324 321 319 319 319 319 316 314 309 306 303 302
305 299 309 305 259 262 264 253 269 257 281 286 286 286 293 301 316 318 321 325 323 328 327 325 325 323 323 323 318 315 316 306
299 293 281 294 243 246 255 255 258 249 294 293 314 301 290 301 306 314 318 319 324 328 324 325 324 321 316 312 321 324 321 315
353 351 262 253 241 243 266 262 255 249 297 304 339 349 314 306 316 319 318 321 323 320 320 316 314 311 315 316 320 326 327 329
20 17 32 138 210 256 275 271 249 286 306 336 344 333 329 327 317 314 316 315 312 311 313 316 312 314 331 337 327 324 330 338
5 63 77 98 110 239 254 273 313 326 327 327 329 319 319 316 312 310 311 313 316 326 330 326 321 328 333 332 335 334 334 335
150 100 109 126 152 181 180 186 280 288 298 312 317 319 320 317 314 320 327 329 334 330 326 338 348 338 337 340 343 338 333 333
127 124 131 142 141 151 180 216 284 298 301 306 311 315 319 322 322 330 338 339 354 6 358 3 5 3 356 353 346 339 331 327
142 131 130 131 149 171 206 238 276 307 309 310 313 324 330 330 329 336 5 12 6 12 11 17 10 7 356 346 344 343 343 337
149 148 145 153 163 217 283 339 338 331 321 318 325 329 337 357 9 20 1 356 2 22 22 15 4 360 358 359 1 356 350 346
176 181 170 175 212 247 288 330 343 334 327 336 346 19 20 21 360 353 4 27 27 25 11 6 6 3 360 358 354 353 352 352
188 187 187 194 226 276 311 327 344 339 348 8 35 40 29 5 22 33 32 35 30 19 13 6 1 358 359 357 355 354 354 356
188 187 188 210 265 307 322 328 338 334 6 31 41 21 27 33 39 47 39 40 26 18 14 2 0 1 3 359 358 356 358 0
182 184 203 239 245 291 311 318 359 19 10 44 34 22 56 47 34 40 46 25 15 11 10 5 2 359 353 354 358 358 8 18
179 206 189 210 321 326 322 10 64 27 36 51 31 20 20 8 8 55 39 22 14 18 12 5 357 355 352 352 359 2 20 23
173 174 174 5 347 327 335 145 122 16 35 35 29 28 30 22 11 10 0 7 10 6 1 355 354 352 352 355 2 8 23 17
160 178 312 349 358 326 314 204 207 325 325 353 18 23 27 25 27 20 4 360 358 353 349 351 355 355 355 3 8 18 16 5
121 319 312 13 7 310 293 239 257 289 288 312 356 16 8 350 3 354 351 348 347 349 352 353 354 355 7 13 15 11 10 4
185 291 338 7 358 336 318 275 252 275 265 293 256 357 355 324 315 322 332 333 340 350 355 357 1 2 4 6 1 1 0 357
211 346 4 347 337 345 337 300 256 266 265 281 268 297 306 310 309 309 318 326 344 350 354 358 0 359 1 0 359 358 355 350
Wind_Speed_850mb
13 17 30 34 39 42 37 37 36 30 31 33 38 32 28 26 29 28 30 34 34 35 37 39 39 41 43 44 50 55 57 60
22 28 22 17 26 28 34 36 31 28 30 36 33 31 30 27 29 30 33 35 38 39 40 43 44 45 46 50 55 64 67 66
24 27 23 14 22 19 27 29 25 26 28 24 26 26 28 30 30 34 36 39 42 44 48 49 49 49 49 49 54 57 61 59
29 28 13 17 22 24 17 20 23 24 21 20 24 26 25 28 31 32 38 42 45 50 54 58 58 60 64 62 60 48 50 49
15 17 15 3 6 7 9 16 15 14 12 18 23 25 27 30 36 41 44 44 45 49 53 53 49 45 39 40 38 45 45 44
5 10 9 11 9 2 7 5 3 6 14 21 26 30 31 35 39 40 42 44 42 35 29 29 32 31 32 33 39 37 37 41
1 10 15 16 10 8 8 3 5 12 17 17 19 22 29 38 41 38 34 33 29 32 35 30 29 19 25 33 34 35 44 52
4 12 15 15 13 11 8 4 4 9 16 20 23 28 33 32 32 29 25 25 23 21 27 23 19 23 30 35 42 51 56 55
12 15 17 13 11 7 8 5 8 11 14 20 26 27 25 25 22 17 14 20 26 26 24 21 23 28 36 45 51 51 53 57
14 18 17 16 11 9 2 8 12 15 17 22 24 25 24 15 12 13 22 29 26 19 18 22 31 39 45 49 52 54 55 57
18 20 17 14 12 13 16 19 18 19 20 19 19 12 14 15 16 23 25 20 21 21 29 35 40 46 48 52 56 57 57 56
29 28 22 16 12 10 15 16 15 16 16 14 16 15 15 13 15 20 21 21 23 30 32 34 40 47 52 56 60 58 57 56
34 28 20 13 9 11 13 16 13 13 11 13 15 19 16 10 15 19 20 23 28 31 30 33 40 48 52 53 58 61 62 55
34 24 16 12 7 11 12 11 5 5 9 11 17 20 11 12 16 14 15 22 29 32 33 35 37 42 45 49 51 54 48 57
25 18 14 6 4 10 8 2 5 5 8 10 16 17 14 14 15 7 13 20 27 34 39 41 43 46 45 50 47 50 45 55
19 11 4 2 8 10 4 2 2 6 6 6 15 21 21 17 18 10 17 24 30 39 47 51 47 44 44 44 43 46 50 49
10 2 3 6 6 7 3 4 2 4 3 3 10 19 13 20 22 15 17 23 32 41 50 52 50 47 43 39 38 42 44 46
3 3 5 5 6 7 6 6 5 6 8 5 3 15 11 14 11 17 22 25 33 46 50 50 49 50 44 45 48 46 46 46
5 2 4 5 6 10 9 7 9 10 11 9 6 8 11 13 15 22 25 27 37 45 46 42 43 47 49 45 48 50 50 48
5 2 4 5 7 12 15 11 11 12 14 12 12 11 14 18 22 25 25 28 40 47 41 38 35 38 43 49 51 51 51 48
Wind_Direction_850mb
282 247 291 280 261 257 260 263 274 265 276 290 277 280 296 310 324 326 326 325 324 321 319 319 319 319 316 314 309 306 303 302
305 299 309 305 259 262 264 253 269 257 281 286 286 286 293 301 316 318 321 325 323 328 327 325 325 323 323 323 318 315 316 306
299 293 281 294 243 246 255 255 258 249 294 293 314 301 290 301 306 314 318 319 324 328 324 325 324 321 316 312 321 324 321 315
353 351 262 253 241 243 266 262 255 249 297 304 339 349 314 306 316 319 318 321 323 320 320 316 314 311 315 316 320 326 327 329
20 17 32 138 210 256 275 271 249 286 306 336 344 333 329 327 317 314 316 315 312 311 313 316 312 314 331 337 327 324 330 338
5 63 77 98 110 239 254 273 313 326 327 327 329 319 319 316 312 310 311 313 316 326 330 326 321 328 333 332 335 334 334 335
150 100 109 126 152 181 180 186 280 288 298 312 317 319 320 317 314 320 327 329 334 330 326 338 348 338 337 340 343 338 333 333
127 124 131 142 141 151 180 216 284 298 301 306 311 315 319 322 322 330 338 339 354 6 358 3 5 3 356 353 346 339 331 327
142 131 130 131 149 171 206 238 276 307 309 310 313 324 330 330 329 336 5 12 6 12 11 17 10 7 356 346 344 343 343 337
149 148 145 153 163 217 283 339 338 331 321 318 325 329 337 357 9 20 1 356 2 22 22 15 4 360 358 359 1 356 350 346
176 181 170 175 212 247 288 330 343 334 327 336 346 19 20 21 360 353 4 27 27 25 11 6 6 3 360 358 354 353 352 352
188 187 187 194 226 276 311 327 344 339 348 8 35 40 29 5 22 33 32 35 30 19 13 6 1 358 359 357 355 354 354 356
188 187 188 210 265 307 322 328 338 334 6 31 41 21 27 33 39 47 39 40 26 18 14 2 0 1 3 359 358 356 358 0
182 184 203 239 245 291 311 318 359 19 10 44 34 22 56 47 34 40 46 25 15 11 10 5 2 359 353 354 358 358 8 18
179 206 189 210 321 326 322 10 64 27 36 51 31 20 20 8 8 55 39 22 14 18 12 5 357 355 352 352 359 2 20 23
173 174 174 5 347 327 335 145 122 16 35 35 29 28 30 22 11 10 0 7 10 6 1 355 354 352 352 355 2 8 23 17
160 178 312 349 358 326 314 204 207 325 325 353 18 23 27 25 27 20 4 360 358 353 349 351 355 355 355 3 8 18 16 5
121 319 312 13 7 310 293 239 257 289 288 312 356 16 8 350 3 354 351 348 347 349 352 353 354 355 7 13 15 11 10 4
185 291 338 7 358 336 318 275 252 275 265 293 256 357 355 324 315 322 332 333 340 350 355 357 1 2 4 6 1 1 0 357
211 346 4 347 337 345 337 300 256 266 265 281 268 297 306 310 309 309 318 326 344 350 354 358 0 359 1 0 359 358 355 350